Year,Month,Day,Hour,Minute,Value (Times are PST for temperature in C)
2008,05,25,00,00,15.00
2008,05,25,00,01,15.00
2008,05,25,00,02,15.00
2008,05,25,00,03,15.00
2008,05,25,00,04,15.00
2008,05,25,00,05,15.00
2008,05,25,00,06,15.00
2008,05,25,00,07,15.00
2008,05,25,00,08,14.90
2008,05,25,00,09,14.90
2008,05,25,00,10,14.80
2008,05,25,00,11,14.80
2008,05,25,00,12,14.80
2008,05,25,00,13,14.80
2008,05,25,00,14,14.70
2008,05,25,00,15,14.70
2008,05,25,00,16,14.70
2008,05,25,00,17,14.60
2008,05,25,00,18,14.60
2008,05,25,00,19,14.60
2008,05,25,00,20,14.60
2008,05,25,00,21,14.60
2008,05,25,00,22,14.50
2008,05,25,00,23,14.50
2008,05,25,00,24,14.50
2008,05,25,00,25,14.40
2008,05,25,00,26,14.40
2008,05,25,00,27,14.40
2008,05,25,00,28,14.40
2008,05,25,00,29,14.30
2008,05,25,00,30,14.30
2008,05,25,00,31,14.30
2008,05,25,00,32,14.30
2008,05,25,00,33,14.20
2008,05,25,00,34,14.20
2008,05,25,00,35,14.20
2008,05,25,00,36,14.20
2008,05,25,00,37,14.10
2008,05,25,00,38,14.10
2008,05,25,00,39,14.10
2008,05,25,00,40,14.00
2008,05,25,00,41,14.00
2008,05,25,00,42,13.90
2008,05,25,00,43,13.90
2008,05,25,00,44,13.90
2008,05,25,00,45,13.80
2008,05,25,00,46,13.80
2008,05,25,00,47,13.80
2008,05,25,00,48,13.70
2008,05,25,00,49,13.70
2008,05,25,00,50,13.70
2008,05,25,00,51,13.70
2008,05,25,00,52,13.70
2008,05,25,00,53,13.60
2008,05,25,00,54,13.60
2008,05,25,00,55,13.60
2008,05,25,00,56,13.60
2008,05,25,00,57,13.50
2008,05,25,00,58,13.50
2008,05,25,00,59,13.50
2008,05,25,01,00,13.50
2008,05,25,01,01,13.40
2008,05,25,01,02,13.40
2008,05,25,01,03,13.40
2008,05,25,01,04,13.40
2008,05,25,01,05,13.40
2008,05,25,01,06,13.40
2008,05,25,01,07,13.40
2008,05,25,01,08,13.40
2008,05,25,01,09,13.40
2008,05,25,01,10,13.40
2008,05,25,01,11,13.40
2008,05,25,01,12,13.50
2008,05,25,01,13,13.50
2008,05,25,01,14,13.60
2008,05,25,01,15,13.60
2008,05,25,01,16,13.70
2008,05,25,01,17,13.70
2008,05,25,01,18,13.70
2008,05,25,01,19,13.70
2008,05,25,01,20,13.70
2008,05,25,01,21,13.70
2008,05,25,01,22,13.70
2008,05,25,01,23,13.70
2008,05,25,01,24,13.70
2008,05,25,01,25,13.70
2008,05,25,01,26,13.70
2008,05,25,01,27,13.70
2008,05,25,01,28,13.60
2008,05,25,01,29,13.60
2008,05,25,01,30,13.60
2008,05,25,01,31,13.50
2008,05,25,01,32,13.50
2008,05,25,01,33,13.50
2008,05,25,01,34,13.50
2008,05,25,01,35,13.50
2008,05,25,01,36,13.50
2008,05,25,01,37,13.50
2008,05,25,01,38,13.60
2008,05,25,01,39,13.60
2008,05,25,01,40,13.70
2008,05,25,01,41,13.70
2008,05,25,01,42,13.70
2008,05,25,01,43,13.70
2008,05,25,01,44,13.80
2008,05,25,01,45,13.80
2008,05,25,01,46,13.80
2008,05,25,01,47,13.80
2008,05,25,01,48,13.80
2008,05,25,01,49,13.80
2008,05,25,01,50,13.80
2008,05,25,01,51,13.80
2008,05,25,01,52,13.70
2008,05,25,01,53,13.70
2008,05,25,01,54,13.70
2008,05,25,01,55,13.70
2008,05,25,01,56,13.70
2008,05,25,01,57,13.70
2008,05,25,01,58,13.70
2008,05,25,01,59,13.70
2008,05,25,02,00,13.60
2008,05,25,02,01,13.60
2008,05,25,02,02,13.60
2008,05,25,02,03,13.60
2008,05,25,02,04,13.60
2008,05,25,02,05,13.60
2008,05,25,02,06,13.60
2008,05,25,02,07,13.60
2008,05,25,02,08,13.50
2008,05,25,02,09,13.50
2008,05,25,02,10,13.50
2008,05,25,02,11,13.60
2008,05,25,02,12,13.50
2008,05,25,02,13,13.60
2008,05,25,02,14,13.60
2008,05,25,02,15,13.60
2008,05,25,02,16,13.60
2008,05,25,02,17,13.60
2008,05,25,02,18,13.60
2008,05,25,02,19,13.60
2008,05,25,02,20,13.60
2008,05,25,02,21,13.60
2008,05,25,02,22,13.60
2008,05,25,02,23,13.60
2008,05,25,02,24,13.60
2008,05,25,02,25,13.60
2008,05,25,02,26,13.60
2008,05,25,02,27,13.60
2008,05,25,02,28,13.60
2008,05,25,02,29,13.70
2008,05,25,02,30,13.70
2008,05,25,02,31,13.70
2008,05,25,02,32,13.80
2008,05,25,02,33,13.80
2008,05,25,02,34,13.80
2008,05,25,02,35,13.90
2008,05,25,02,36,13.90
2008,05,25,02,37,14.00
2008,05,25,02,38,14.00
2008,05,25,02,39,14.10
2008,05,25,02,40,14.20
2008,05,25,02,41,14.20
2008,05,25,02,42,14.30
2008,05,25,02,43,14.30
2008,05,25,02,44,14.40
2008,05,25,02,45,14.40
2008,05,25,02,46,14.50
2008,05,25,02,47,14.60
2008,05,25,02,48,14.60
2008,05,25,02,49,14.70
2008,05,25,02,50,14.70
2008,05,25,02,51,14.80
2008,05,25,02,52,14.80
2008,05,25,02,53,15.00
2008,05,25,02,54,15.00
2008,05,25,02,55,15.00
2008,05,25,02,56,15.00
2008,05,25,02,57,15.20
2008,05,25,02,58,15.30
2008,05,25,02,59,15.30
2008,05,25,03,00,15.40
2008,05,25,03,01,15.40
2008,05,25,03,02,15.50
2008,05,25,03,03,15.50
2008,05,25,03,04,15.60
2008,05,25,03,05,15.60
2008,05,25,03,06,15.60
2008,05,25,03,07,15.70
2008,05,25,03,08,15.80
2008,05,25,03,09,16.00
2008,05,25,03,10,16.10
2008,05,25,03,11,16.20
2008,05,25,03,12,16.30
2008,05,25,03,13,16.40
2008,05,25,03,14,16.50
2008,05,25,03,15,16.60
2008,05,25,03,16,16.70
2008,05,25,03,17,16.80
2008,05,25,03,18,16.90
2008,05,25,03,19,17.00
2008,05,25,03,20,17.10
2008,05,25,03,21,17.10
2008,05,25,03,22,17.20
2008,05,25,03,23,17.20
2008,05,25,03,24,17.30
2008,05,25,03,25,17.30
2008,05,25,03,26,17.40
2008,05,25,03,27,17.40
2008,05,25,03,28,17.50
2008,05,25,03,29,17.50
2008,05,25,03,30,17.50
2008,05,25,03,31,17.60
2008,05,25,03,32,17.60
2008,05,25,03,33,17.70
2008,05,25,03,34,17.70
2008,05,25,03,35,17.80
2008,05,25,03,36,17.80
2008,05,25,03,37,17.80
2008,05,25,03,38,17.80
2008,05,25,03,39,17.80
2008,05,25,03,40,17.80
2008,05,25,03,41,17.70
2008,05,25,03,42,17.70
2008,05,25,03,43,17.80
2008,05,25,03,44,17.80
2008,05,25,03,45,17.90
2008,05,25,03,46,17.90
2008,05,25,03,47,18.00
2008,05,25,03,48,18.10
2008,05,25,03,49,18.10
2008,05,25,03,50,18.10
2008,05,25,03,51,18.10
2008,05,25,03,52,18.20
2008,05,25,03,53,18.20
2008,05,25,03,54,18.20
2008,05,25,03,55,18.20
2008,05,25,03,56,18.20
2008,05,25,03,57,18.20
2008,05,25,03,58,18.20
2008,05,25,03,59,18.20
2008,05,25,04,00,18.20
2008,05,25,04,01,18.20
2008,05,25,04,02,18.20
2008,05,25,04,03,18.20
2008,05,25,04,04,18.20
2008,05,25,04,05,18.20
2008,05,25,04,06,18.20
2008,05,25,04,07,18.20
2008,05,25,04,08,18.20
2008,05,25,04,09,18.20
2008,05,25,04,10,18.20
2008,05,25,04,11,18.20
2008,05,25,04,12,18.20
2008,05,25,04,13,18.20
2008,05,25,04,14,18.20
2008,05,25,04,15,18.20
2008,05,25,04,16,18.20
2008,05,25,04,17,18.20
2008,05,25,04,18,18.20
2008,05,25,04,19,18.10
2008,05,25,04,20,18.10
2008,05,25,04,21,18.00
2008,05,25,04,22,17.90
2008,05,25,04,23,17.90
2008,05,25,04,24,17.90
2008,05,25,04,25,17.80
2008,05,25,04,26,17.80
2008,05,25,04,27,17.80
2008,05,25,04,28,17.70
2008,05,25,04,29,17.70
2008,05,25,04,30,17.60
2008,05,25,04,31,17.60
2008,05,25,04,32,17.50
2008,05,25,04,33,17.40
2008,05,25,04,34,17.30
2008,05,25,04,35,17.20
2008,05,25,04,36,17.10
2008,05,25,04,37,17.00
2008,05,25,04,38,17.00
2008,05,25,04,39,16.90
2008,05,25,04,40,16.80
2008,05,25,04,41,16.70
2008,05,25,04,42,16.60
2008,05,25,04,43,16.60
2008,05,25,04,44,16.50
2008,05,25,04,45,16.40
2008,05,25,04,46,16.30
2008,05,25,04,47,16.30
2008,05,25,04,48,16.30
2008,05,25,04,49,16.20
2008,05,25,04,50,16.20
2008,05,25,04,51,16.10
2008,05,25,04,52,16.10
2008,05,25,04,53,16.00
2008,05,25,04,54,16.00
2008,05,25,04,55,15.90
2008,05,25,04,56,15.90
2008,05,25,04,57,15.80
2008,05,25,04,58,15.80
2008,05,25,04,59,15.80
2008,05,25,05,00,15.70
2008,05,25,05,01,15.70
2008,05,25,05,02,15.70
2008,05,25,05,03,15.70
2008,05,25,05,04,15.60
2008,05,25,05,05,15.60
2008,05,25,05,06,15.60
2008,05,25,05,07,15.60
2008,05,25,05,08,15.60
2008,05,25,05,09,15.60
2008,05,25,05,10,15.50
2008,05,25,05,11,15.50
2008,05,25,05,12,15.50
2008,05,25,05,13,15.50
2008,05,25,05,14,15.50
2008,05,25,05,15,15.50
2008,05,25,05,16,15.40
2008,05,25,05,17,15.40
2008,05,25,05,18,15.40
2008,05,25,05,19,15.40
2008,05,25,05,20,15.40
2008,05,25,05,21,15.40
2008,05,25,05,22,15.40
2008,05,25,05,23,15.40
2008,05,25,05,24,15.40
2008,05,25,05,25,15.30
2008,05,25,05,26,15.30
2008,05,25,05,27,15.30
2008,05,25,05,28,15.30
2008,05,25,05,29,15.30
2008,05,25,05,30,15.30
2008,05,25,05,31,15.30
2008,05,25,05,32,15.30
2008,05,25,05,33,15.20
2008,05,25,05,34,15.20
2008,05,25,05,35,15.20
2008,05,25,05,36,15.20
2008,05,25,05,37,15.20
2008,05,25,05,38,15.20
2008,05,25,05,39,15.20
2008,05,25,05,40,15.20
2008,05,25,05,41,15.20
2008,05,25,05,42,15.20
2008,05,25,05,43,15.20
2008,05,25,05,44,15.10
2008,05,25,05,45,15.20
2008,05,25,05,46,15.10
2008,05,25,05,47,15.20
2008,05,25,05,48,15.10
2008,05,25,05,49,15.10
2008,05,25,05,50,15.10
2008,05,25,05,51,15.10
2008,05,25,05,52,15.10
2008,05,25,05,53,15.10
2008,05,25,05,54,15.10
2008,05,25,05,55,15.10
2008,05,25,05,56,15.10
2008,05,25,05,57,15.10
2008,05,25,05,58,15.10
2008,05,25,05,59,15.10
2008,05,25,06,00,15.00
2008,05,25,06,01,15.10
2008,05,25,06,02,15.10
2008,05,25,06,03,15.10
2008,05,25,06,04,15.10
2008,05,25,06,05,15.10
2008,05,25,06,06,15.10
2008,05,25,06,07,15.10
2008,05,25,06,08,15.10
2008,05,25,06,09,15.10
2008,05,25,06,10,15.10
2008,05,25,06,11,15.10
2008,05,25,06,12,15.10
2008,05,25,06,13,15.20
2008,05,25,06,14,15.20
2008,05,25,06,15,15.20
2008,05,25,06,16,15.20
2008,05,25,06,17,15.20
2008,05,25,06,18,15.20
2008,05,25,06,19,15.20
2008,05,25,06,20,15.20
2008,05,25,06,21,15.20
2008,05,25,06,22,15.20
2008,05,25,06,23,15.20
2008,05,25,06,24,15.20
2008,05,25,06,25,15.30
2008,05,25,06,26,15.30
2008,05,25,06,27,15.30
2008,05,25,06,28,15.40
2008,05,25,06,29,15.50
2008,05,25,06,30,15.60
2008,05,25,06,31,15.70
2008,05,25,06,32,15.90
2008,05,25,06,33,16.00
2008,05,25,06,34,16.10
2008,05,25,06,35,16.30
2008,05,25,06,36,16.40
2008,05,25,06,37,16.50
2008,05,25,06,38,16.60
2008,05,25,06,39,16.70
2008,05,25,06,40,16.70
2008,05,25,06,41,16.80
2008,05,25,06,42,16.80
2008,05,25,06,43,16.80
2008,05,25,06,44,16.80
2008,05,25,06,45,16.80
2008,05,25,06,46,16.80
2008,05,25,06,47,16.80
2008,05,25,06,48,16.80
2008,05,25,06,49,16.80
2008,05,25,06,50,16.80
2008,05,25,06,51,16.70
2008,05,25,06,52,16.70
2008,05,25,06,53,16.70
2008,05,25,06,54,16.60
2008,05,25,06,55,16.60
2008,05,25,06,56,16.60
2008,05,25,06,57,16.60
2008,05,25,06,58,16.50
2008,05,25,06,59,16.50
2008,05,25,07,00,16.50
2008,05,25,07,01,16.40
2008,05,25,07,02,16.40
2008,05,25,07,03,16.40
2008,05,25,07,04,16.40
2008,05,25,07,05,16.40
2008,05,25,07,06,16.40
2008,05,25,07,07,16.40
2008,05,25,07,08,16.40
2008,05,25,07,09,16.40
2008,05,25,07,10,16.50
2008,05,25,07,11,16.50
2008,05,25,07,12,16.50
2008,05,25,07,13,16.60
2008,05,25,07,14,16.60
2008,05,25,07,15,16.60
2008,05,25,07,16,16.70
2008,05,25,07,17,16.70
2008,05,25,07,18,16.70
2008,05,25,07,19,16.80
2008,05,25,07,20,16.80
2008,05,25,07,21,16.80
2008,05,25,07,22,16.80
2008,05,25,07,23,16.80
2008,05,25,07,24,16.80
2008,05,25,07,25,16.90
2008,05,25,07,26,16.90
2008,05,25,07,27,16.90
2008,05,25,07,28,16.90
2008,05,25,07,29,16.90
2008,05,25,07,30,16.90
2008,05,25,07,31,17.00
2008,05,25,07,32,17.00
2008,05,25,07,33,17.00
2008,05,25,07,34,17.00
2008,05,25,07,35,17.10
2008,05,25,07,36,17.10
2008,05,25,07,37,17.10
2008,05,25,07,38,17.10
2008,05,25,07,39,17.10
2008,05,25,07,40,17.10
2008,05,25,07,41,17.10
2008,05,25,07,42,17.10
2008,05,25,07,43,17.20
2008,05,25,07,44,17.20
2008,05,25,07,45,17.20
2008,05,25,07,46,17.20
2008,05,25,07,47,17.20
2008,05,25,07,48,17.20
2008,05,25,07,49,17.20
2008,05,25,07,50,17.20
2008,05,25,07,51,17.20
2008,05,25,07,52,17.20
2008,05,25,07,53,17.20
2008,05,25,07,54,17.20
2008,05,25,07,55,17.20
2008,05,25,07,56,17.20
2008,05,25,07,57,17.30
2008,05,25,07,58,17.30
2008,05,25,07,59,17.30
2008,05,25,08,00,17.30
2008,05,25,08,01,17.30
2008,05,25,08,02,17.30
2008,05,25,08,03,17.30
2008,05,25,08,04,17.30
2008,05,25,08,05,17.30
2008,05,25,08,06,17.30
2008,05,25,08,07,17.30
2008,05,25,08,08,17.30
2008,05,25,08,09,17.30
2008,05,25,08,10,17.30
2008,05,25,08,11,17.30
2008,05,25,08,12,17.30
2008,05,25,08,13,17.30
2008,05,25,08,14,17.30
2008,05,25,08,15,17.30
2008,05,25,08,16,17.30
2008,05,25,08,17,17.30
2008,05,25,08,18,17.30
2008,05,25,08,19,17.30
2008,05,25,08,20,17.30
2008,05,25,08,21,17.30
2008,05,25,08,22,17.30
2008,05,25,08,23,17.30
2008,05,25,08,24,17.30
2008,05,25,08,25,17.30
2008,05,25,08,26,17.40
2008,05,25,08,27,17.40
2008,05,25,08,28,17.40
2008,05,25,08,29,17.40
2008,05,25,08,30,17.40
2008,05,25,08,31,17.40
2008,05,25,08,32,17.40
2008,05,25,08,33,17.40
2008,05,25,08,34,17.40
2008,05,25,08,35,17.40
2008,05,25,08,36,17.40
2008,05,25,08,37,17.40
2008,05,25,08,38,17.40
2008,05,25,08,39,17.40
2008,05,25,08,40,17.40
2008,05,25,08,41,17.30
2008,05,25,08,42,17.30
2008,05,25,08,43,17.30
2008,05,25,08,44,17.30
2008,05,25,08,45,17.30
2008,05,25,08,46,17.30
2008,05,25,08,47,17.30
2008,05,25,08,48,17.30
2008,05,25,08,49,17.30
2008,05,25,08,50,17.30
2008,05,25,08,51,17.30
2008,05,25,08,52,17.40
2008,05,25,08,53,17.40
2008,05,25,08,54,17.40
2008,05,25,08,55,17.30
2008,05,25,08,56,17.30
2008,05,25,08,57,17.30
2008,05,25,08,58,17.30
2008,05,25,08,59,17.30
2008,05,25,09,00,17.30
2008,05,25,09,01,17.30
2008,05,25,09,02,17.30
2008,05,25,09,03,17.30
2008,05,25,09,04,17.30
2008,05,25,09,05,17.30
2008,05,25,09,06,17.30
2008,05,25,09,07,17.30
2008,05,25,09,08,17.30
2008,05,25,09,09,17.30
2008,05,25,09,10,17.30
2008,05,25,09,11,17.30
2008,05,25,09,12,17.30
2008,05,25,09,13,17.30
2008,05,25,09,14,17.30
2008,05,25,09,15,17.40
2008,05,25,09,16,17.40
2008,05,25,09,17,17.40
2008,05,25,09,18,17.40
2008,05,25,09,19,17.50
2008,05,25,09,20,17.50
2008,05,25,09,21,17.60
2008,05,25,09,22,17.60
2008,05,25,09,23,17.70
2008,05,25,09,24,17.70
2008,05,25,09,25,17.70
2008,05,25,09,26,17.80
2008,05,25,09,27,17.80
2008,05,25,09,28,17.80
2008,05,25,09,29,17.80
2008,05,25,09,30,17.90
2008,05,25,09,31,17.90
2008,05,25,09,32,18.00
2008,05,25,09,33,18.00
2008,05,25,09,34,18.10
2008,05,25,09,35,18.10
2008,05,25,09,36,18.20
2008,05,25,09,37,18.20
2008,05,25,09,38,18.30
2008,05,25,09,39,18.30
2008,05,25,09,40,18.30
2008,05,25,09,41,18.40
2008,05,25,09,42,18.40
2008,05,25,09,43,18.40
2008,05,25,09,44,18.40
2008,05,25,09,45,18.50
2008,05,25,09,46,18.50
2008,05,25,09,47,18.50
2008,05,25,09,48,18.60
2008,05,25,09,49,18.60
2008,05,25,09,50,18.60
2008,05,25,09,51,18.70
2008,05,25,09,52,18.70
2008,05,25,09,53,18.70
2008,05,25,09,54,18.70
2008,05,25,09,55,18.80
2008,05,25,09,56,18.80
2008,05,25,09,57,18.80
2008,05,25,09,58,18.80
2008,05,25,09,59,18.80
2008,05,25,10,00,18.90
2008,05,25,10,01,18.90
2008,05,25,10,02,19.00
2008,05,25,10,03,19.10
2008,05,25,10,04,19.10
2008,05,25,10,05,19.10
2008,05,25,10,06,19.00
2008,05,25,10,07,18.80
2008,05,25,10,08,18.40
2008,05,25,10,09,18.10
2008,05,25,10,10,17.90
2008,05,25,10,11,17.70
2008,05,25,10,12,17.50
2008,05,25,10,13,17.40
2008,05,25,10,14,17.30
2008,05,25,10,15,17.30
2008,05,25,10,16,17.20
2008,05,25,10,17,17.20
2008,05,25,10,18,17.30
2008,05,25,10,19,17.30
2008,05,25,10,20,17.30
2008,05,25,10,21,17.30
2008,05,25,10,22,17.30
2008,05,25,10,23,17.30
2008,05,25,10,24,17.40
2008,05,25,10,25,17.40
2008,05,25,10,26,17.40
2008,05,25,10,27,17.40
2008,05,25,10,28,17.40
2008,05,25,10,29,17.40
2008,05,25,10,30,17.40
2008,05,25,10,31,17.40
2008,05,25,10,32,17.40
2008,05,25,10,33,17.40
2008,05,25,10,34,17.40
2008,05,25,10,35,17.50
2008,05,25,10,36,17.50
2008,05,25,10,37,17.50
2008,05,25,10,38,17.60
2008,05,25,10,39,17.60
2008,05,25,10,40,17.70
2008,05,25,10,41,17.70
2008,05,25,10,42,17.70
2008,05,25,10,43,17.70
2008,05,25,10,44,17.80
2008,05,25,10,45,17.80
2008,05,25,10,46,17.80
2008,05,25,10,47,17.90
2008,05,25,10,48,17.90
2008,05,25,10,49,18.00
2008,05,25,10,50,18.10
2008,05,25,10,51,18.10
2008,05,25,10,52,18.20
2008,05,25,10,53,18.20
2008,05,25,10,54,18.30
2008,05,25,10,55,18.40
2008,05,25,10,56,18.50
2008,05,25,10,57,18.60
2008,05,25,10,58,18.60
2008,05,25,10,59,18.70
2008,05,25,11,00,18.80
2008,05,25,11,01,18.90
2008,05,25,11,02,19.00
2008,05,25,11,03,19.20
2008,05,25,11,04,19.40
2008,05,25,11,05,19.60
2008,05,25,11,06,19.80
2008,05,25,11,07,19.90
2008,05,25,11,08,20.10
2008,05,25,11,09,20.20
2008,05,25,11,10,20.30
2008,05,25,11,11,20.50
2008,05,25,11,12,20.60
2008,05,25,11,13,20.80
2008,05,25,11,14,20.90
2008,05,25,11,15,21.10
2008,05,25,11,16,21.20
2008,05,25,11,17,21.20
2008,05,25,11,18,21.30
2008,05,25,11,19,21.30
2008,05,25,11,20,21.30
2008,05,25,11,21,21.30
2008,05,25,11,22,21.30
2008,05,25,11,23,21.20
2008,05,25,11,24,21.20
2008,05,25,11,25,21.20
2008,05,25,11,26,21.20
2008,05,25,11,27,21.30
2008,05,25,11,28,21.30
2008,05,25,11,29,21.40
2008,05,25,11,30,21.40
2008,05,25,11,31,21.40
2008,05,25,11,32,21.40
2008,05,25,11,33,21.50
2008,05,25,11,34,21.50
2008,05,25,11,35,21.50
2008,05,25,11,36,21.60
2008,05,25,11,37,21.60
2008,05,25,11,38,21.50
2008,05,25,11,39,21.50
2008,05,25,11,40,21.40
2008,05,25,11,41,21.40
2008,05,25,11,42,21.30
2008,05,25,11,43,21.20
2008,05,25,11,44,21.00
2008,05,25,11,45,20.80
2008,05,25,11,46,20.70
2008,05,25,11,47,20.60
2008,05,25,11,48,20.50
2008,05,25,11,49,20.40
2008,05,25,11,50,20.30
2008,05,25,11,51,20.20
2008,05,25,11,52,20.10
2008,05,25,11,53,20.00
2008,05,25,11,54,20.00
2008,05,25,11,55,19.90
2008,05,25,11,56,19.90
2008,05,25,11,57,20.00
2008,05,25,11,58,20.00
2008,05,25,11,59,19.90
2008,05,25,12,00,19.90
2008,05,25,12,01,19.70
2008,05,25,12,02,19.60
2008,05,25,12,03,19.60
2008,05,25,12,04,19.70
2008,05,25,12,05,19.70
2008,05,25,12,06,19.70
2008,05,25,12,07,19.80
2008,05,25,12,08,19.80
2008,05,25,12,09,19.90
2008,05,25,12,10,19.90
2008,05,25,12,11,20.00
2008,05,25,12,12,20.00
2008,05,25,12,13,20.00
2008,05,25,12,14,20.00
2008,05,25,12,15,20.00
2008,05,25,12,16,20.00
2008,05,25,12,17,20.10
2008,05,25,12,18,20.20
2008,05,25,12,19,20.30
2008,05,25,12,20,20.40
2008,05,25,12,21,20.40
2008,05,25,12,22,20.50
2008,05,25,12,23,20.60
2008,05,25,12,24,20.50
2008,05,25,12,25,20.50
2008,05,25,12,26,20.50
2008,05,25,12,27,20.50
2008,05,25,12,28,20.40
2008,05,25,12,29,20.30
2008,05,25,12,30,20.20
2008,05,25,12,31,20.10
2008,05,25,12,32,20.10
2008,05,25,12,33,20.00
2008,05,25,12,34,20.00
2008,05,25,12,35,20.00
2008,05,25,12,36,20.00
2008,05,25,12,37,20.00
2008,05,25,12,38,20.10
2008,05,25,12,39,20.10
2008,05,25,12,40,20.20
2008,05,25,12,41,20.20
2008,05,25,12,42,20.20
2008,05,25,12,43,20.20
2008,05,25,12,44,20.30
2008,05,25,12,45,20.30
2008,05,25,12,46,20.30
2008,05,25,12,47,20.30
2008,05,25,12,48,20.40
2008,05,25,12,49,20.40
2008,05,25,12,50,20.40
2008,05,25,12,51,20.40
2008,05,25,12,52,20.40
2008,05,25,12,53,20.50
2008,05,25,12,54,20.50
2008,05,25,12,55,20.50
2008,05,25,12,56,20.50
2008,05,25,12,57,20.50
2008,05,25,12,58,20.60
2008,05,25,12,59,20.60
2008,05,25,13,00,20.60
2008,05,25,13,01,20.60
2008,05,25,13,02,20.70
2008,05,25,13,03,20.70
2008,05,25,13,04,20.60
2008,05,25,13,05,20.60
2008,05,25,13,06,20.60
2008,05,25,13,07,20.50
2008,05,25,13,08,20.40
2008,05,25,13,09,20.40
2008,05,25,13,10,20.40
2008,05,25,13,11,20.40
2008,05,25,13,12,20.40
2008,05,25,13,13,20.40
2008,05,25,13,14,20.40
2008,05,25,13,15,20.40
2008,05,25,13,16,20.30
2008,05,25,13,17,20.30
2008,05,25,13,18,20.20
2008,05,25,13,19,20.20
2008,05,25,13,20,20.20
2008,05,25,13,21,20.20
2008,05,25,13,22,20.10
2008,05,25,13,23,20.10
2008,05,25,13,24,20.10
2008,05,25,13,25,20.10
2008,05,25,13,26,20.10
2008,05,25,13,27,20.10
2008,05,25,13,28,20.10
2008,05,25,13,29,20.20
2008,05,25,13,30,20.20
2008,05,25,13,31,20.20
2008,05,25,13,32,20.30
2008,05,25,13,33,20.30
2008,05,25,13,34,20.40
2008,05,25,13,35,20.50
2008,05,25,13,36,20.50
2008,05,25,13,37,20.60
2008,05,25,13,38,20.70
2008,05,25,13,39,20.70
2008,05,25,13,40,20.70
2008,05,25,13,41,20.70
2008,05,25,13,42,20.60
2008,05,25,13,43,20.60
2008,05,25,13,44,20.60
2008,05,25,13,45,20.60
2008,05,25,13,46,20.60
2008,05,25,13,47,20.60
2008,05,25,13,48,20.70
2008,05,25,13,49,20.70
2008,05,25,13,50,20.70
2008,05,25,13,51,20.60
2008,05,25,13,52,20.60
2008,05,25,13,53,20.50
2008,05,25,13,54,20.50
2008,05,25,13,55,20.40
2008,05,25,13,56,20.30
2008,05,25,13,57,20.30
2008,05,25,13,58,20.30
2008,05,25,13,59,20.40
2008,05,25,14,00,20.40
2008,05,25,14,01,20.40
2008,05,25,14,02,20.50
2008,05,25,14,03,20.40
2008,05,25,14,04,20.40
2008,05,25,14,05,20.40
2008,05,25,14,06,20.40
2008,05,25,14,07,20.40
2008,05,25,14,08,20.40
2008,05,25,14,09,20.40
2008,05,25,14,10,20.30
2008,05,25,14,11,20.30
2008,05,25,14,12,20.30
2008,05,25,14,13,20.30
2008,05,25,14,14,20.30
2008,05,25,14,15,20.30
2008,05,25,14,16,20.30
2008,05,25,14,17,20.30
2008,05,25,14,18,20.30
2008,05,25,14,19,20.30
2008,05,25,14,20,20.30
2008,05,25,14,21,20.40
2008,05,25,14,22,20.40
2008,05,25,14,23,20.40
2008,05,25,14,24,20.40
2008,05,25,14,25,20.30
2008,05,25,14,26,20.30
2008,05,25,14,27,20.20
2008,05,25,14,28,20.20
2008,05,25,14,29,20.20
2008,05,25,14,30,20.20
2008,05,25,14,31,20.20
2008,05,25,14,32,20.20
2008,05,25,14,33,20.30
2008,05,25,14,34,20.30
2008,05,25,14,35,20.40
2008,05,25,14,36,20.50
2008,05,25,14,37,20.50
2008,05,25,14,38,20.60
2008,05,25,14,39,20.70
2008,05,25,14,40,20.80
2008,05,25,14,41,20.80
2008,05,25,14,42,20.90
2008,05,25,14,43,21.00
2008,05,25,14,44,21.10
2008,05,25,14,45,21.10
2008,05,25,14,46,21.20
2008,05,25,14,47,21.30
2008,05,25,14,48,21.30
2008,05,25,14,49,21.40
2008,05,25,14,50,21.40
2008,05,25,14,51,21.50
2008,05,25,14,52,21.50
2008,05,25,14,53,21.60
2008,05,25,14,54,21.60
2008,05,25,14,55,21.70
2008,05,25,14,56,21.70
2008,05,25,14,57,21.70
2008,05,25,14,58,21.70
2008,05,25,14,59,21.70
2008,05,25,15,00,21.70
2008,05,25,15,01,21.70
2008,05,25,15,02,21.70
2008,05,25,15,03,21.70
2008,05,25,15,04,21.70
2008,05,25,15,05,21.70
2008,05,25,15,06,21.70
2008,05,25,15,07,21.80
2008,05,25,15,08,21.80
2008,05,25,15,09,21.80
2008,05,25,15,10,21.80
2008,05,25,15,11,21.80
2008,05,25,15,12,21.80
2008,05,25,15,13,21.80
2008,05,25,15,14,21.90
2008,05,25,15,15,21.90
2008,05,25,15,16,21.90
2008,05,25,15,17,22.00
2008,05,25,15,18,22.00
2008,05,25,15,19,22.10
2008,05,25,15,20,22.10
2008,05,25,15,21,22.10
2008,05,25,15,22,22.10
2008,05,25,15,23,22.20
2008,05,25,15,24,22.20
2008,05,25,15,25,22.30
2008,05,25,15,26,22.30
2008,05,25,15,27,22.40
2008,05,25,15,28,22.40
2008,05,25,15,29,22.50
2008,05,25,15,30,22.50
2008,05,25,15,31,22.50
2008,05,25,15,32,22.50
2008,05,25,15,33,22.50
2008,05,25,15,34,22.50
2008,05,25,15,35,22.60
2008,05,25,15,36,22.60
2008,05,25,15,37,22.70
2008,05,25,15,38,22.70
2008,05,25,15,39,22.80
2008,05,25,15,40,22.80
2008,05,25,15,41,22.80
2008,05,25,15,42,22.70
2008,05,25,15,43,22.70
2008,05,25,15,44,22.60
2008,05,25,15,45,22.60
2008,05,25,15,46,22.60
2008,05,25,15,47,22.70
2008,05,25,15,48,22.70
2008,05,25,15,49,22.80
2008,05,25,15,50,22.90
2008,05,25,15,51,22.90
2008,05,25,15,52,23.00
2008,05,25,15,53,23.10
2008,05,25,15,54,23.10
2008,05,25,15,55,23.10
2008,05,25,15,56,23.10
2008,05,25,15,57,23.20
2008,05,25,15,58,23.20
2008,05,25,15,59,23.20
2008,05,25,16,00,23.20
2008,05,25,16,01,23.20
2008,05,25,16,02,23.10
2008,05,25,16,03,23.10
2008,05,25,16,04,23.10
2008,05,25,16,05,23.10
2008,05,25,16,06,23.10
2008,05,25,16,07,23.10
2008,05,25,16,08,23.20
2008,05,25,16,09,23.30
2008,05,25,16,10,23.40
2008,05,25,16,11,23.50
2008,05,25,16,12,23.60
2008,05,25,16,13,23.70
2008,05,25,16,14,23.80
2008,05,25,16,15,23.80
2008,05,25,16,16,23.90
2008,05,25,16,17,24.00
2008,05,25,16,18,24.10
2008,05,25,16,19,24.10
2008,05,25,16,20,24.10
2008,05,25,16,21,24.10
2008,05,25,16,22,24.20
2008,05,25,16,23,24.10
2008,05,25,16,24,24.10
2008,05,25,16,25,24.00
2008,05,25,16,26,24.00
2008,05,25,16,27,23.90
2008,05,25,16,28,23.90
2008,05,25,16,29,23.80
2008,05,25,16,30,23.70
2008,05,25,16,31,23.70
2008,05,25,16,32,23.60
2008,05,25,16,33,23.60
2008,05,25,16,34,23.60
2008,05,25,16,35,23.60
2008,05,25,16,36,23.60
2008,05,25,16,37,23.50
2008,05,25,16,38,23.50
2008,05,25,16,39,23.40
2008,05,25,16,40,23.40
2008,05,25,16,41,23.40
2008,05,25,16,42,23.40
2008,05,25,16,43,23.40
2008,05,25,16,44,23.40
2008,05,25,16,45,23.40
2008,05,25,16,46,23.40
2008,05,25,16,47,23.40
2008,05,25,16,48,23.30
2008,05,25,16,49,23.40
2008,05,25,16,50,23.40
2008,05,25,16,51,23.30
2008,05,25,16,52,23.30
2008,05,25,16,53,23.30
2008,05,25,16,54,23.20
2008,05,25,16,55,23.20
2008,05,25,16,56,23.10
2008,05,25,16,57,23.10
2008,05,25,16,58,23.00
2008,05,25,16,59,23.00
2008,05,25,17,00,23.10
2008,05,25,17,01,23.10
2008,05,25,17,02,23.10
2008,05,25,17,03,23.00
2008,05,25,17,04,23.00
2008,05,25,17,05,22.90
2008,05,25,17,06,23.00
2008,05,25,17,07,23.00
2008,05,25,17,08,23.10
2008,05,25,17,09,23.10
2008,05,25,17,10,23.10
2008,05,25,17,11,23.10
2008,05,25,17,12,23.10
2008,05,25,17,13,23.10
2008,05,25,17,14,23.00
2008,05,25,17,15,23.00
2008,05,25,17,16,23.00
2008,05,25,17,17,23.00
2008,05,25,17,18,23.10
2008,05,25,17,19,23.10